GW3496 Weather Reports


time (UTC)temp
C
wind
direction
speed
KPH
gust
KPH
rain 1hr
cm
rain 24hr
cm
rain mn
cm
humidity
%
barometer
mb
20260906064558 21 30 3.2 4.8 0.00 0.71 0.00 95 1010.1
20260906063055 21 345 0.0 4.8 0.00 0.71 0.00 95 1010.3
20260906061559 21 346 0.0 6.4 0.00 0.71 0.00 95 1010.2
20260906054600 21 348 0.0 0.0 0.00 0.71 0.00 95 1010.2
20260906053101 21 348 0.0 0.0 0.00 0.71 0.00 95 1010.3
20260906051600 21 348 0.0 0.0 0.00 0.71 0.00 95 1010.5
20260906050059 21 348 0.0 0.0 0.00 0.71 0.00 94 1010.2
20260906044556 21 5 0.0 4.8 0.00 0.71 0.00 94 1010.3
20260906043035 22 348 1.6 4.8 0.03 0.71 0.00 94 1010.3
20260906041542 22 316 0.0 3.2 0.03 0.71 0.00 94 1010.2
20260906040042 22 344 3.2 6.4 0.03 0.71 0.00 94 1010.2
20260906034540 22 5 3.2 6.4 0.03 0.71 0.71 94 1010.4
20260906033046 22 24 0.0 0.0 0.00 0.66 0.66 94 1010.4
20260906031539 22 355 0.0 0.0 0.00 0.66 0.66 93 1010.4
20260906030041 22 87 0.0 0.0 0.00 0.66 0.66 93 1010.6
20260906024541 22 360 0.0 4.8 0.00 0.66 0.66 93 1010.2
20260906023043 22 307 1.6 8.0 0.00 0.66 0.66 93 1010.3
20260906021539 22 281 3.2 8.0 0.00 0.66 0.66 93 1010.3
20260906020042 23 288 0.0 4.8 0.00 0.66 0.66 92 1010.1
20260906014539 23 355 0.0 6.4 0.00 0.66 0.66 92 1010.2
20260906013042 23 313 3.2 6.4 0.03 0.66 0.66 92 1009.9
20260906011544 23 290 0.0 0.0 0.03 0.66 0.66 91 1009.5
20260906010048 23 282 1.6 11.3 0.03 0.66 0.66 91 1009.3
20260906004538 23 292 0.0 6.4 0.00 0.66 0.66 91 1009.4
20260906003038 23 292 0.0 0.0 0.00 0.66 0.66 90 1009.4
20260906001538 24 5 0.0 0.0 0.00 0.66 0.66 89 1009.1
20260906000045 24 275 0.0 3.2 0.00 0.66 0.66 89 1009.0
20260905234544 24 348 0.0 6.4 0.03 0.66 0.66 88 1009.1
20260905233043 25 328 1.6 6.4 0.03 0.66 0.66 87 1009.3
20260905231540 25 313 0.0 4.8 0.03 0.66 0.66 86 1009.2
20260905230048 25 281 3.2 8.0 0.03 0.66 0.66 84 1008.8
20260905224558 26 291 1.6 6.4 0.00 0.64 0.64 82 1009.2
20260905223041 26 257 4.8 11.3 0.03 0.64 0.64 80 1009.1
20260905221555 26 242 3.2 6.4 0.03 0.64 0.64 80 1009.2
20260905220043 26 245 4.8 8.0 0.03 0.64 0.64 80 1009.0
20260905214541 26 181 4.8 9.7 0.03 0.64 0.64 80 1008.4
20260905213039 26 217 3.2 8.0 0.03 0.61 0.61 80 1008.8
20260905211539 25 202 4.8 6.4 0.03 0.61 0.61 80 1008.9
20260905210043 25 232 0.0 3.2 0.03 0.61 0.61 82 1008.6
20260905204538 25 186 1.6 9.7 0.05 0.61 0.61 83 1008.9
20260905203056 25 219 4.8 9.7 0.03 0.56 0.56 84 1008.9
20260905201545 24 252 9.7 16.1 0.05 0.56 0.56 86 1008.7
20260905200053 24 218 11.3 16.1 0.05 0.56 0.56 85 1008.8
20260905194538 24 242 9.7 17.7 0.05 0.56 0.56 86 1008.9
20260905193042 24 245 9.7 16.1 0.05 0.56 0.56 87 1009.2
20260905191540 24 245 8.0 12.9 0.05 0.53 0.53 89 1009.3
20260905190042 23 213 6.4 12.9 0.08 0.53 0.53 91 1009.2
20260905184559 23 185 1.6 12.9 0.08 0.48 0.48 93 1009.5
20260905183043 23 250 9.7 16.1 0.10 0.48 0.48 93 1009.7
20260905181601 23 189 6.4 14.5 0.10 0.48 0.48 94 1009.5
20260905180038 22 55 0.0 0.0 0.15 0.46 0.46 93 1009.0
20260905174551 22 23 0.0 8.0 0.18 0.41 0.41 92 1008.9
20260905173042 22 144 1.6 4.8 0.30 0.36 0.36 92 1008.9
20260905171543 22 105 3.2 6.4 0.36 0.36 0.36 92 1009.3
20260905170042 22 144 3.2 8.0 0.28 0.28 0.28 90 1009.6
20260905164545 22 53 0.0 12.9 0.20 0.20 0.20 89 1010.1
20260905163044 24 248 24.1 43.5 0.08 0.08 0.08 83 1011.5
20260905161540 25 304 1.6 12.9 0.00 0.00 0.00 80 1011.0
20260905160107 25 360 8.0 16.1 0.00 0.00 0.00 78 1010.8
20260905154548 26 360 8.0 16.1 0.00 0.00 0.00 77 1010.7
20260905153042 26 33 8.0 19.3 0.00 0.00 0.00 77 1010.4
20260905151540 26 26 4.8 12.9 0.00 0.00 0.00 77 1010.5
20260905150040 26 344 3.2 16.1 0.00 0.00 0.00 77 1010.8
20260905144544 26 15 8.0 16.1 0.00 0.00 0.00 77 1010.8
20260905143044 26 13 8.0 16.1 0.00 0.00 0.00 77 1011.0
20260905141544 26 31 4.8 14.5 0.00 0.00 0.00 77 1010.5
20260905140049 26 344 3.2 14.5 0.00 0.00 0.00 78 1010.4
20260905134543 26 17 6.4 14.5 0.00 0.00 0.00 78 1010.1
20260905133043 25 38 4.8 17.7 0.00 0.00 0.00 80 1009.8
20260905131541 25 50 6.4 16.1 0.00 0.00 0.00 82 1010.3
20260905130039 23 336 6.4 12.9 0.00 0.00 0.00 87 1009.9
20260905124543 23 337 1.6 8.0 0.00 0.00 0.00 88 1010.2
20260905123043 22 52 0.0 4.8 0.00 0.00 0.00 89 1009.8
20260905121539 22 47 4.8 8.0 0.00 0.00 0.00 89 1009.6
20260905120042 22 5 0.0 4.8 0.00 0.00 0.00 90 1009.8
20260905114546 22 82 1.6 6.4 0.00 0.00 0.00 91 1009.5
20260905113047 22 67 0.0 0.0 0.00 0.00 0.00 92 1009.5
20260905111607 22 84 0.0 0.0 0.00 0.00 0.00 92 1009.5
20260905110056 22 84 0.0 0.0 0.00 0.00 0.00 92 1008.8
20260905104550 21 350 0.0 0.0 0.00 0.00 0.00 91 1008.7
20260905103049 22 350 0.0 0.0 0.00 0.00 0.00 91 1008.7
20260905101543 22 350 0.0 0.0 0.00 0.00 0.00 91 1008.5
20260905100045 22 355 0.0 0.0 0.00 0.00 0.00 91 1008.6
20260905094539 22 338 1.6 6.4 0.00 0.00 0.00 91 1008.3
20260905093045 22 302 0.0 0.0 0.00 0.00 0.00 91 1008.1
20260905091611 22 324 1.6 6.4 0.00 0.00 0.00 91 1008.1
20260905090116 22 331 3.2 8.0 0.00 0.00 0.00 91 1008.2
20260905084556 22 316 4.8 9.7 0.00 0.00 0.00 91 1008.3
20260905083045 22 295 3.2 8.0 0.00 0.00 0.00 91 1008.5
20260905081542 22 302 3.2 6.4 0.00 0.00 0.00 91 1008.7
20260905080055 22 250 3.2 9.7 0.00 0.00 0.00 91 1008.8
20260905074549 22 336 1.6 8.0 0.00 0.05 0.00 91 1008.9
20260905073051 22 323 3.2 8.0 0.00 0.05 0.00 91 1009.0
20260905071550 22 5 3.2 9.7 0.00 0.05 0.00 90 1009.0
20260905070057 22 304 6.4 16.1 0.00 0.05 0.00 90 1009.3